Weather History for Joplin, MO

Change the Weather History Date:

Tuesday, July 23, 2013

  Actual Average Record
Temperature  
Mean Temperature 85 °F 81 °F  
Max Temperature 98 °F 91 °F 105 °F (2011)
Min Temperature 72 °F 70 °F 57 °F (1970)
Degree Days  
Heating Degree Days 0 0  
Month to date heating degree days 0 0  
Since 1 June heating degree days 12 5  
Since 1 July heating degree days 0 0  
Cooling Degree Days 20 16  
Month to date cooling degree days 336 347  
Year to date cooling degree days 803 845  
Since 1 June cooling degree days 659 665  
Growing Degree Days 38 (Base 50)    
Moisture  
Dew Point 72 °F    
Average Humidity 63    
Maximum Humidity 79    
Minimum Humidity 46    
Precipitation  
Precipitation 0.08 in 0.11 in 3.61 in (1956)
Month to date precipitation 0.19 2.98  
Year to date precipitation 27.97 26.79  
Snow  
Snow 0.00 in - - ()
Month to date snowfall 0.0  
Since 1 June snowfall 0.0  
Snow Depth 0.00 in    
Sea Level Pressure  
Sea Level Pressure 29.83 in    
Wind  
Wind Speed 9 mph (SW)    
Max Wind Speed 20 mph    
Max Gust Speed 25 mph    
Visibility 10 miles    
Events      
T = Trace of Precipitation, MM = Missing Value Source: NWS Daily Summary

Daily Weather History Graph

Daily Weather History Graph

Search for Another Location

Airport:

Trip Planner

Search our weather history database for the weather conditions in past years. The results will help you decide how hot, cold, wet, or windy it might be!

Date:

Astronomy

Jul. 23, 2013 Rise Set
Actual Time 6:15 AM CDT 8:32 PM CDT
Civil Twilight 5:46 AM CDT 9:02 PM CDT
Nautical Twilight 5:10 AM CDT 9:38 PM CDT
Astronomical Twilight 4:30 AM CDT 10:17 PM CDT
Moon 9:05 PM CDT (7/23) 7:22 AM CDT (7/23)
Length of Visible Light 15h 15m
Length of Day
14h 16m
Full, 99% of the Moon is Illuminated
Jul 23
Full
Jul 29
Last Quarter
Aug 6
New
Aug 14
First Quarter
Aug 20
Full

Hourly Weather History & Observations

Time (CDT) Temp. Heat Index Dew Point Humidity Pressure Visibility Wind Dir Wind Speed Gust Speed Precip Events Conditions
12:53 AM 81.0 °F 84.4 °F 70.0 °F 69% 29.84 in 10.0 mi South 11.5 mph - N/A   Clear
1:53 AM 79.0 °F - 70.0 °F 74% 29.85 in 10.0 mi South 11.5 mph - N/A   Clear
2:53 AM 79.0 °F - 70.0 °F 74% 29.85 in 10.0 mi SSW 10.4 mph - N/A   Partly Cloudy
3:53 AM 78.1 °F - 71.1 °F 79% 29.83 in 10.0 mi SSW 12.7 mph - N/A   Clear
4:53 AM 78.1 °F - 71.1 °F 79% 29.84 in 10.0 mi SW 9.2 mph - N/A   Clear
5:53 AM 78.1 °F - 71.1 °F 79% 29.84 in 10.0 mi SSW 10.4 mph - N/A   Clear
6:53 AM 78.1 °F - 71.1 °F 79% 29.85 in 10.0 mi SSW 11.5 mph - N/A   Clear
7:53 AM 82.0 °F 86.3 °F 71.1 °F 69% 29.86 in 10.0 mi SW 10.4 mph - N/A   Clear
8:53 AM 84.0 °F 89.6 °F 72.0 °F 67% 29.87 in 10.0 mi SW 11.5 mph - N/A   Clear
9:53 AM 87.1 °F 93.6 °F 72.0 °F 61% 29.86 in 10.0 mi SW 12.7 mph - N/A   Clear
10:53 AM 89.1 °F 97.0 °F 73.0 °F 59% 29.86 in 10.0 mi WSW 12.7 mph - N/A   Clear
11:53 AM 90.0 °F 99.0 °F 73.9 °F 59% 29.86 in 10.0 mi West 10.4 mph - N/A   Partly Cloudy
12:53 PM 93.0 °F 103.2 °F 73.9 °F 54% 29.84 in 10.0 mi WSW 6.9 mph - N/A   Clear
1:53 PM 93.0 °F 103.2 °F 73.9 °F 54% 29.85 in 10.0 mi NW 5.8 mph - N/A   Clear
2:53 PM 95.0 °F 105.2 °F 73.9 °F 50% 29.83 in 10.0 mi NW 5.8 mph - N/A   Clear
3:53 PM 96.1 °F 105.6 °F 73.0 °F 47% 29.82 in 10.0 mi West 6.9 mph - N/A   Clear
4:53 PM 97.0 °F 107.0 °F 73.0 °F 46% 29.80 in 10.0 mi WNW 6.9 mph - N/A   Scattered Clouds
5:53 PM 95.0 °F 102.5 °F 71.1 °F 46% 29.77 in 10.0 mi WNW 6.9 mph - N/A   Clear
6:53 PM 93.9 °F 102.1 °F 72.0 °F 49% 29.78 in 10.0 mi Calm Calm - N/A   Clear
7:53 PM 91.0 °F 100.4 °F 73.9 °F 57% 29.78 in 10.0 mi WSW 3.5 mph - N/A   Clear
8:53 PM 87.1 °F 94.5 °F 73.0 °F 63% 29.81 in 10.0 mi East 4.6 mph - N/A   Scattered Clouds
9:53 PM 84.0 °F 89.6 °F 72.0 °F 67% 29.79 in 10.0 mi ENE 5.8 mph - N/A   Scattered Clouds
10:53 PM 78.1 °F - 68.0 °F 71% 29.82 in 10.0 mi SE 10.4 mph - N/A   Mostly Cloudy
11:53 PM 75.0 °F - 68.0 °F 79% 29.83 in 10.0 mi SE 13.8 mph 23.0 mph N/A   Mostly Cloudy